Data supplied by UK-AIR on 6/5/2020
All Data GMT hour ending 
Status: R =Ratified P=Provisional,P*=As supplied
,,Salford Eccles,,,,,,,,,,,,,,,,,,,,,,,
Date,time,"PM<sub>10</sub> particulate matter (Hourly measured)",status,unit,"Nitric oxide",status,unit,"Nitrogen dioxide",status,unit,"Nitrogen oxides as nitrogen dioxide",status,unit,"PM<sub>2.5</sub> particulate matter (Hourly measured)",status,unit
 
01-01-2019,01:00,17.300,R,ugm-3 (FIDAS),1.19535,R,ugm-3,3.99953,R,ugm-3,5.83237,R,ugm-3,10.723,R,ugm-3 (Ref.eq)
01-01-2019,02:00,17.100,R,ugm-3 (FIDAS),0.78642,R,ugm-3,8.02877,R,ugm-3,9.23459,R,ugm-3,10.543,R,ugm-3 (Ref.eq)
01-01-2019,03:00,15.200,R,ugm-3 (FIDAS),0.84933,R,ugm-3,5.18623,R,ugm-3,6.48851,R,ugm-3,8.042,R,ugm-3 (Ref.eq)
01-01-2019,04:00,13.700,R,ugm-3 (FIDAS),0.99088,R,ugm-3,4.27659,R,ugm-3,5.79592,R,ugm-3,7.948,R,ugm-3 (Ref.eq)
01-01-2019,05:00,15.300,R,ugm-3 (FIDAS),0.92011,R,ugm-3,4.78609,R,ugm-3,6.19689,R,ugm-3,8.538,R,ugm-3 (Ref.eq)
01-01-2019,06:00,15.175,R,ugm-3 (FIDAS),0.44826,R,ugm-3,4.78053,R,ugm-3,5.46785,R,ugm-3,8.467,R,ugm-3 (Ref.eq)
01-01-2019,07:00,12.675,R,ugm-3 (FIDAS),1.27399,R,ugm-3,6.90449,R,ugm-3,8.85791,R,ugm-3,6.604,R,ugm-3 (Ref.eq)
01-01-2019,08:00,12.300,R,ugm-3 (FIDAS),3.63324,R,ugm-3,11.70751,R,ugm-3,17.27840,R,ugm-3,6.651,R,ugm-3 (Ref.eq)
01-01-2019,09:00,8.900,R,ugm-3 (FIDAS),2.71313,R,ugm-3,11.76959,R,ugm-3,15.92966,R,ugm-3,5.047,R,ugm-3 (Ref.eq)
01-01-2019,10:00,8.150,R,ugm-3 (FIDAS),2.80750,R,ugm-3,8.85451,R,ugm-3,13.15929,R,ugm-3,4.151,R,ugm-3 (Ref.eq)
01-01-2019,11:00,14.550,R,ugm-3 (FIDAS),2.31206,R,ugm-3,7.17187,R,ugm-3,10.71698,R,ugm-3,6.533,R,ugm-3 (Ref.eq)
01-01-2019,12:00,18.175,R,ugm-3 (FIDAS),2.12332,R,ugm-3,7.82579,R,ugm-3,11.08151,R,ugm-3,8.491,R,ugm-3 (Ref.eq)
01-01-2019,13:00,16.725,R,ugm-3 (FIDAS),4.29383,R,ugm-3,11.53303,R,ugm-3,18.11680,R,ugm-3,7.830,R,ugm-3 (Ref.eq)
01-01-2019,14:00,14.500,R,ugm-3 (FIDAS),5.68578,R,ugm-3,17.41824,R,ugm-3,26.13631,R,ugm-3,6.816,R,ugm-3 (Ref.eq)
01-01-2019,15:00,15.825,R,ugm-3 (FIDAS),4.38820,R,ugm-3,16.41875,R,ugm-3,23.14722,R,ugm-3,7.099,R,ugm-3 (Ref.eq)
01-01-2019,16:00,25.575,R,ugm-3 (FIDAS),4.55334,R,ugm-3,16.42069,R,ugm-3,23.40239,R,ugm-3,9.269,R,ugm-3 (Ref.eq)
01-01-2019,17:00,19.850,R,ugm-3 (FIDAS),6.20481,R,ugm-3,26.20936,R,ugm-3,35.72327,R,ugm-3,9.693,R,ugm-3 (Ref.eq)
01-01-2019,18:00,23.050,R,ugm-3 (FIDAS),8.58765,R,ugm-3,35.71501,R,ugm-3,48.88256,R,ugm-3,12.995,R,ugm-3 (Ref.eq)
01-01-2019,19:00,20.750,R,ugm-3 (FIDAS),15.40587,R,ugm-3,43.01284,R,ugm-3,66.63484,R,ugm-3,14.646,R,ugm-3 (Ref.eq)
01-01-2019,20:00,12.900,R,ugm-3 (FIDAS),12.10292,R,ugm-3,43.95817,R,ugm-3,62.51573,R,ugm-3,9.033,R,ugm-3 (Ref.eq)
01-01-2019,21:00,11.875,R,ugm-3 (FIDAS),9.20105,R,ugm-3,39.47682,R,ugm-3,53.58491,R,ugm-3,9.009,R,ugm-3 (Ref.eq)
01-01-2019,22:00,12.450,R,ugm-3 (FIDAS),6.53511,R,ugm-3,36.74797,R,ugm-3,46.76833,R,ugm-3,9.175,R,ugm-3 (Ref.eq)
01-01-2019,23:00,11.150,R,ugm-3 (FIDAS),4.41179,R,ugm-3,31.47384,R,ugm-3,38.23848,R,ugm-3,7.028,R,ugm-3 (Ref.eq)
01-01-2019,24:00,10.325,R,ugm-3 (FIDAS),2.71313,R,ugm-3,27.66280,R,ugm-3,31.82287,R,ugm-3,5.778,R,ugm-3 (Ref.eq)
02-01-2019,01:00,11.425,R,ugm-3 (FIDAS),2.11601,R,ugm-3,19.58460,R,ugm-3,22.82910,R,ugm-3,6.462,R,ugm-3 (Ref.eq)
02-01-2019,02:00,13.150,R,ugm-3 (FIDAS),2.14713,R,ugm-3,22.32444,R,ugm-3,25.61665,R,ugm-3,7.335,R,ugm-3 (Ref.eq)
02-01-2019,03:00,12.200,R,ugm-3 (FIDAS),2.12379,R,ugm-3,23.95826,R,ugm-3,27.21469,R,ugm-3,6.675,R,ugm-3 (Ref.eq)
02-01-2019,04:00,11.450,R,ugm-3 (FIDAS),1.09690,R,ugm-3,15.43993,R,ugm-3,17.12183,R,ugm-3,6.321,R,ugm-3 (Ref.eq)
02-01-2019,05:00,11.400,R,ugm-3 (FIDAS),2.00710,R,ugm-3,26.19180,R,ugm-3,29.26931,R,ugm-3,6.462,R,ugm-3 (Ref.eq)
02-01-2019,06:00,11.225,R,ugm-3 (FIDAS),14.18972,R,ugm-3,38.79993,R,ugm-3,60.55719,R,ugm-3,6.014,R,ugm-3 (Ref.eq)
02-01-2019,07:00,12.600,R,ugm-3 (FIDAS),8.42515,R,ugm-3,34.87855,R,ugm-3,47.79693,R,ugm-3,6.722,R,ugm-3 (Ref.eq)
02-01-2019,08:00,13.975,R,ugm-3 (FIDAS),57.73909,R,ugm-3,59.50867,R,ugm-3,148.04071,R,ugm-3,8.255,R,ugm-3 (Ref.eq)
02-01-2019,09:00,16.925,R,ugm-3 (FIDAS),129.85460,R,ugm-3,67.27194,R,ugm-3,266.37956,R,ugm-3,9.835,R,ugm-3 (Ref.eq)
02-01-2019,10:00,17.200,R,ugm-3 (FIDAS),116.20167,R,ugm-3,67.55182,R,ugm-3,245.72523,R,ugm-3,10.826,R,ugm-3 (Ref.eq)
02-01-2019,11:00,29.925,R,ugm-3 (FIDAS),145.28126,R,ugm-3,74.58154,R,ugm-3,297.34303,R,ugm-3,15.755,R,ugm-3 (Ref.eq)
02-01-2019,12:00,29.675,R,ugm-3 (FIDAS),160.52120,R,ugm-3,76.48216,R,ugm-3,322.61124,R,ugm-3,15.991,R,ugm-3 (Ref.eq)
02-01-2019,13:00,30.625,R,ugm-3 (FIDAS),,,,,,,,,,17.028,R,ugm-3 (Ref.eq)
02-01-2019,14:00,35.150,R,ugm-3 (FIDAS),129.51231,R,ugm-3,73.68429,R,ugm-3,272.26706,R,ugm-3,21.580,R,ugm-3 (Ref.eq)
02-01-2019,15:00,30.600,R,ugm-3 (FIDAS),87.68220,R,ugm-3,68.49453,R,ugm-3,202.93869,R,ugm-3,18.396,R,ugm-3 (Ref.eq)
02-01-2019,16:00,35.800,R,ugm-3 (FIDAS),90.48280,R,ugm-3,68.16538,R,ugm-3,206.90374,R,ugm-3,18.491,R,ugm-3 (Ref.eq)
02-01-2019,17:00,39.600,R,ugm-3 (FIDAS),107.02969,R,ugm-3,79.12815,R,ugm-3,243.23806,R,ugm-3,19.198,R,ugm-3 (Ref.eq)
02-01-2019,18:00,31.100,R,ugm-3 (FIDAS),127.89418,R,ugm-3,85.48927,R,ugm-3,281.59095,R,ugm-3,17.335,R,ugm-3 (Ref.eq)
02-01-2019,19:00,33.100,R,ugm-3 (FIDAS),100.65832,R,ugm-3,83.59869,R,ugm-3,237.93930,R,ugm-3,18.679,R,ugm-3 (Ref.eq)
02-01-2019,20:00,26.675,R,ugm-3 (FIDAS),73.53916,R,ugm-3,79.51062,R,ugm-3,192.26909,R,ugm-3,16.557,R,ugm-3 (Ref.eq)
02-01-2019,21:00,26.800,R,ugm-3 (FIDAS),31.90353,R,ugm-3,70.64634,R,ugm-3,119.56441,R,ugm-3,14.741,R,ugm-3 (Ref.eq)
02-01-2019,22:00,21.000,R,ugm-3 (FIDAS),21.02786,R,ugm-3,70.48869,R,ugm-3,102.73095,R,ugm-3,13.774,R,ugm-3 (Ref.eq)
02-01-2019,23:00,25.350,R,ugm-3 (FIDAS),11.69252,R,ugm-3,64.90531,R,ugm-3,82.83359,R,ugm-3,14.245,R,ugm-3 (Ref.eq)
02-01-2019,24:00,23.250,R,ugm-3 (FIDAS),17.85384,R,ugm-3,67.71370,R,ugm-3,95.08921,R,ugm-3,15.260,R,ugm-3 (Ref.eq)
03-01-2019,01:00,20.425,R,ugm-3 (FIDAS),9.48866,R,ugm-3,58.47622,R,ugm-3,73.02529,R,ugm-3,15.094,R,ugm-3 (Ref.eq)
03-01-2019,02:00,17.725,R,ugm-3 (FIDAS),1.66131,R,ugm-3,27.93324,R,ugm-3,30.48055,R,ugm-3,12.925,R,ugm-3 (Ref.eq)
03-01-2019,03:00,15.775,R,ugm-3 (FIDAS),1.48560,R,ugm-3,18.47745,R,ugm-3,20.75533,R,ugm-3,11.462,R,ugm-3 (Ref.eq)
03-01-2019,04:00,15.075,R,ugm-3 (FIDAS),0.86261,R,ugm-3,13.85608,R,ugm-3,15.17872,R,ugm-3,10.543,R,ugm-3 (Ref.eq)
03-01-2019,05:00,20.825,R,ugm-3 (FIDAS),0.64696,R,ugm-3,12.59870,R,ugm-3,13.59068,R,ugm-3,12.005,R,ugm-3 (Ref.eq)
03-01-2019,06:00,23.850,R,ugm-3 (FIDAS),23.02677,R,ugm-3,52.58903,R,ugm-3,87.89625,R,ugm-3,14.953,R,ugm-3 (Ref.eq)
03-01-2019,07:00,25.900,R,ugm-3 (FIDAS),13.25058,R,ugm-3,46.26968,R,ugm-3,66.58695,R,ugm-3,16.297,R,ugm-3 (Ref.eq)
03-01-2019,08:00,26.175,R,ugm-3 (FIDAS),12.69947,R,ugm-3,57.23385,R,ugm-3,76.70610,R,ugm-3,15.826,R,ugm-3 (Ref.eq)
03-01-2019,09:00,33.050,R,ugm-3 (FIDAS),21.08591,R,ugm-3,64.90857,R,ugm-3,97.23985,R,ugm-3,16.981,R,ugm-3 (Ref.eq)
03-01-2019,10:00,28.650,R,ugm-3 (FIDAS),24.24879,R,ugm-3,63.97359,R,ugm-3,101.15455,R,ugm-3,18.066,R,ugm-3 (Ref.eq)
03-01-2019,11:00,32.550,R,ugm-3 (FIDAS),7.04461,R,ugm-3,46.25712,R,ugm-3,57.05870,R,ugm-3,22.712,R,ugm-3 (Ref.eq)
03-01-2019,12:00,31.825,R,ugm-3 (FIDAS),6.06220,R,ugm-3,34.80061,R,ugm-3,44.09585,R,ugm-3,22.618,R,ugm-3 (Ref.eq)
03-01-2019,13:00,32.675,R,ugm-3 (FIDAS),3.97757,R,ugm-3,25.47732,R,ugm-3,31.57617,R,ugm-3,22.901,R,ugm-3 (Ref.eq)
03-01-2019,14:00,31.375,R,ugm-3 (FIDAS),5.79863,R,ugm-3,32.80422,R,ugm-3,41.69532,R,ugm-3,22.760,R,ugm-3 (Ref.eq)
03-01-2019,15:00,31.125,R,ugm-3 (FIDAS),6.15804,R,ugm-3,34.91217,R,ugm-3,44.35437,R,ugm-3,20.283,R,ugm-3 (Ref.eq)
03-01-2019,16:00,30.400,R,ugm-3 (FIDAS),5.15167,R,ugm-3,36.01208,R,ugm-3,43.91120,R,ugm-3,19.198,R,ugm-3 (Ref.eq)
03-01-2019,17:00,33.250,R,ugm-3 (FIDAS),4.76829,R,ugm-3,42.84129,R,ugm-3,50.15257,R,ugm-3,21.321,R,ugm-3 (Ref.eq)
03-01-2019,18:00,31.675,R,ugm-3 (FIDAS),9.94392,R,ugm-3,52.74320,R,ugm-3,67.99034,R,ugm-3,22.429,R,ugm-3 (Ref.eq)
03-01-2019,19:00,39.100,R,ugm-3 (FIDAS),18.18660,R,ugm-3,59.93667,R,ugm-3,87.82239,R,ugm-3,25.118,R,ugm-3 (Ref.eq)
03-01-2019,20:00,34.000,R,ugm-3 (FIDAS),35.58247,R,ugm-3,65.76282,R,ugm-3,120.32185,R,ugm-3,25.849,R,ugm-3 (Ref.eq)
03-01-2019,21:00,36.525,R,ugm-3 (FIDAS),4.31303,R,ugm-3,48.11882,R,ugm-3,54.73204,R,ugm-3,29.387,R,ugm-3 (Ref.eq)
03-01-2019,22:00,39.075,R,ugm-3 (FIDAS),5.27148,R,ugm-3,50.00996,R,ugm-3,58.09278,R,ugm-3,31.675,R,ugm-3 (Ref.eq)
03-01-2019,23:00,43.900,R,ugm-3 (FIDAS),3.71400,R,ugm-3,47.00611,R,ugm-3,52.70082,R,ugm-3,36.415,R,ugm-3 (Ref.eq)
03-01-2019,24:00,42.775,R,ugm-3 (FIDAS),3.66607,R,ugm-3,46.74721,R,ugm-3,52.36844,R,ugm-3,34.293,R,ugm-3 (Ref.eq)
04-01-2019,01:00,39.450,R,ugm-3 (FIDAS),4.68738,R,ugm-3,48.98282,R,ugm-3,56.17003,R,ugm-3,32.878,R,ugm-3 (Ref.eq)
04-01-2019,02:00,38.800,R,ugm-3 (FIDAS),1.37671,R,ugm-3,29.35235,R,ugm-3,31.46329,R,ugm-3,32.878,R,ugm-3 (Ref.eq)
04-01-2019,03:00,34.925,R,ugm-3 (FIDAS),1.47505,R,ugm-3,27.19730,R,ugm-3,29.45901,R,ugm-3,29.293,R,ugm-3 (Ref.eq)
04-01-2019,04:00,33.475,R,ugm-3 (FIDAS),1.52422,R,ugm-3,31.73552,R,ugm-3,34.07262,R,ugm-3,28.302,R,ugm-3 (Ref.eq)
04-01-2019,05:00,38.800,R,ugm-3 (FIDAS),1.25379,R,ugm-3,25.26757,R,ugm-3,27.19003,R,ugm-3,33.043,R,ugm-3 (Ref.eq)
04-01-2019,06:00,42.100,R,ugm-3 (FIDAS),1.72089,R,ugm-3,27.53886,R,ugm-3,30.17753,R,ugm-3,33.679,R,ugm-3 (Ref.eq)
04-01-2019,07:00,41.025,R,ugm-3 (FIDAS),4.20389,R,ugm-3,34.09336,R,ugm-3,40.53923,R,ugm-3,32.288,R,ugm-3 (Ref.eq)
04-01-2019,08:00,39.975,R,ugm-3 (FIDAS),4.79391,R,ugm-3,36.51652,R,ugm-3,43.86708,R,ugm-3,32.429,R,ugm-3 (Ref.eq)
04-01-2019,09:00,39.425,R,ugm-3 (FIDAS),8.23570,R,ugm-3,43.90770,R,ugm-3,56.53559,R,ugm-3,30.778,R,ugm-3 (Ref.eq)
04-01-2019,10:00,48.225,R,ugm-3 (FIDAS),14.13589,R,ugm-3,46.65959,R,ugm-3,68.33432,R,ugm-3,34.340,R,ugm-3 (Ref.eq)
04-01-2019,11:00,41.100,R,ugm-3 (FIDAS),16.49597,R,ugm-3,46.40651,R,ugm-3,71.69999,R,ugm-3,29.505,R,ugm-3 (Ref.eq)
04-01-2019,12:00,40.350,R,ugm-3 (FIDAS),18.95439,R,ugm-3,49.51959,R,ugm-3,78.58258,R,ugm-3,29.811,R,ugm-3 (Ref.eq)
04-01-2019,13:00,47.400,R,ugm-3 (FIDAS),18.97898,R,ugm-3,51.41053,R,ugm-3,80.51122,R,ugm-3,30.944,R,ugm-3 (Ref.eq)
04-01-2019,14:00,44.550,R,ugm-3 (FIDAS),31.02522,R,ugm-3,55.02469,R,ugm-3,102.59603,R,ugm-3,30.661,R,ugm-3 (Ref.eq)
04-01-2019,15:00,41.775,R,ugm-3 (FIDAS),36.50748,R,ugm-3,56.22404,R,ugm-3,112.20140,R,ugm-3,28.373,R,ugm-3 (Ref.eq)
04-01-2019,16:00,37.075,R,ugm-3 (FIDAS),29.05848,R,ugm-3,56.11167,R,ugm-3,100.66739,R,ugm-3,27.783,R,ugm-3 (Ref.eq)
04-01-2019,17:00,39.100,R,ugm-3 (FIDAS),28.93556,R,ugm-3,53.50173,R,ugm-3,97.86897,R,ugm-3,27.712,R,ugm-3 (Ref.eq)
04-01-2019,18:00,39.000,R,ugm-3 (FIDAS),35.13077,R,ugm-3,54.09953,R,ugm-3,107.96596,R,ugm-3,27.712,R,ugm-3 (Ref.eq)
04-01-2019,19:00,37.850,R,ugm-3 (FIDAS),36.28623,R,ugm-3,52.13877,R,ugm-3,107.77688,R,ugm-3,28.302,R,ugm-3 (Ref.eq)
04-01-2019,20:00,39.250,R,ugm-3 (FIDAS),38.32671,R,ugm-3,51.54378,R,ugm-3,110.31058,R,ugm-3,29.929,R,ugm-3 (Ref.eq)
04-01-2019,21:00,40.425,R,ugm-3 (FIDAS),32.30359,R,ugm-3,48.71565,R,ugm-3,98.24714,R,ugm-3,32.028,R,ugm-3 (Ref.eq)
04-01-2019,22:00,43.100,R,ugm-3 (FIDAS),39.92468,R,ugm-3,51.09786,R,ugm-3,112.31485,R,ugm-3,34.387,R,ugm-3 (Ref.eq)
04-01-2019,23:00,44.650,R,ugm-3 (FIDAS),38.64631,R,ugm-3,47.72589,R,ugm-3,106.98273,R,ugm-3,34.906,R,ugm-3 (Ref.eq)
04-01-2019,24:00,41.250,R,ugm-3 (FIDAS),48.06204,R,ugm-3,48.30176,R,ugm-3,121.99586,R,ugm-3,33.939,R,ugm-3 (Ref.eq)
05-01-2019,01:00,41.750,R,ugm-3 (FIDAS),48.66645,R,ugm-3,47.57332,R,ugm-3,122.19417,R,ugm-3,32.995,R,ugm-3 (Ref.eq)
05-01-2019,02:00,38.700,R,ugm-3 (FIDAS),34.07996,R,ugm-3,43.67341,R,ugm-3,95.92861,R,ugm-3,31.179,R,ugm-3 (Ref.eq)
05-01-2019,03:00,34.650,R,ugm-3 (FIDAS),28.43357,R,ugm-3,44.68104,R,ugm-3,88.27858,R,ugm-3,27.783,R,ugm-3 (Ref.eq)
05-01-2019,04:00,25.675,R,ugm-3 (FIDAS),16.15773,R,ugm-3,48.13916,R,ugm-3,72.91400,R,ugm-3,20.943,R,ugm-3 (Ref.eq)
05-01-2019,05:00,13.575,R,ugm-3 (FIDAS),2.77278,R,ugm-3,34.45017,R,ugm-3,38.70170,R,ugm-3,11.109,R,ugm-3 (Ref.eq)
05-01-2019,06:00,11.475,R,ugm-3 (FIDAS),0.98308,R,ugm-3,6.00077,R,ugm-3,7.50813,R,ugm-3,9.033,R,ugm-3 (Ref.eq)
05-01-2019,07:00,13.225,R,ugm-3 (FIDAS),1.10911,R,ugm-3,7.08467,R,ugm-3,8.78529,R,ugm-3,9.340,R,ugm-3 (Ref.eq)
05-01-2019,08:00,12.225,R,ugm-3 (FIDAS),1.81491,R,ugm-3,24.23096,R,ugm-3,27.01379,R,ugm-3,10.024,R,ugm-3 (Ref.eq)
05-01-2019,09:00,23.900,R,ugm-3 (FIDAS),2.06698,R,ugm-3,33.44248,R,ugm-3,36.61181,R,ugm-3,16.698,R,ugm-3 (Ref.eq)
05-01-2019,10:00,26.300,R,ugm-3 (FIDAS),7.33526,R,ugm-3,46.76661,R,ugm-3,58.01385,R,ugm-3,19.080,R,ugm-3 (Ref.eq)
05-01-2019,11:00,23.500,R,ugm-3 (FIDAS),10.68780,R,ugm-3,49.59867,R,ugm-3,65.98640,R,ugm-3,17.170,R,ugm-3 (Ref.eq)
05-01-2019,12:00,24.200,R,ugm-3 (FIDAS),18.35075,R,ugm-3,50.77535,R,ugm-3,78.91277,R,ugm-3,17.925,R,ugm-3 (Ref.eq)
05-01-2019,13:00,28.150,R,ugm-3 (FIDAS),18.60282,R,ugm-3,50.54365,R,ugm-3,79.06757,R,ugm-3,19.929,R,ugm-3 (Ref.eq)
05-01-2019,14:00,27.025,R,ugm-3 (FIDAS),38.28954,R,ugm-3,56.73736,R,ugm-3,115.44717,R,ugm-3,19.929,R,ugm-3 (Ref.eq)
05-01-2019,15:00,21.600,R,ugm-3 (FIDAS),23.44257,R,ugm-3,55.73955,R,ugm-3,91.68433,R,ugm-3,16.627,R,ugm-3 (Ref.eq)
05-01-2019,16:00,21.400,R,ugm-3 (FIDAS),13.28413,R,ugm-3,52.70010,R,ugm-3,73.06881,R,ugm-3,15.495,R,ugm-3 (Ref.eq)
05-01-2019,17:00,13.175,R,ugm-3 (FIDAS),5.26828,R,ugm-3,42.23430,R,ugm-3,50.31221,R,ugm-3,8.278,R,ugm-3 (Ref.eq)
05-01-2019,18:00,13.875,R,ugm-3 (FIDAS),3.68023,R,ugm-3,30.85276,R,ugm-3,36.49570,R,ugm-3,8.585,R,ugm-3 (Ref.eq)
05-01-2019,19:00,14.225,R,ugm-3 (FIDAS),3.88189,R,ugm-3,40.21898,R,ugm-3,46.17113,R,ugm-3,9.906,R,ugm-3 (Ref.eq)
05-01-2019,20:00,16.125,R,ugm-3 (FIDAS),1.53763,R,ugm-3,25.85587,R,ugm-3,28.21354,R,ugm-3,11.627,R,ugm-3 (Ref.eq)
05-01-2019,21:00,18.350,R,ugm-3 (FIDAS),4.91538,R,ugm-3,32.79036,R,ugm-3,40.32717,R,ugm-3,13.538,R,ugm-3 (Ref.eq)
05-01-2019,22:00,18.925,R,ugm-3 (FIDAS),11.29277,R,ugm-3,53.12176,R,ugm-3,70.43709,R,ugm-3,14.057,R,ugm-3 (Ref.eq)
05-01-2019,23:00,17.575,R,ugm-3 (FIDAS),3.78106,R,ugm-3,41.10891,R,ugm-3,46.90646,R,ugm-3,13.302,R,ugm-3 (Ref.eq)
05-01-2019,24:00,18.450,R,ugm-3 (FIDAS),1.26035,R,ugm-3,23.95892,R,ugm-3,25.89144,R,ugm-3,14.080,R,ugm-3 (Ref.eq)
06-01-2019,01:00,16.475,R,ugm-3 (FIDAS),1.37760,R,ugm-3,27.55153,R,ugm-3,29.66382,R,ugm-3,11.981,R,ugm-3 (Ref.eq)
06-01-2019,02:00,14.475,R,ugm-3 (FIDAS),1.65312,R,ugm-3,23.32873,R,ugm-3,25.86347,R,ugm-3,10.543,R,ugm-3 (Ref.eq)
06-01-2019,03:00,13.125,R,ugm-3 (FIDAS),1.21401,R,ugm-3,24.42428,R,ugm-3,26.28574,R,ugm-3,9.316,R,ugm-3 (Ref.eq)
06-01-2019,04:00,13.475,R,ugm-3 (FIDAS),1.23984,R,ugm-3,18.56539,R,ugm-3,20.46645,R,ugm-3,9.387,R,ugm-3 (Ref.eq)
06-01-2019,05:00,15.675,R,ugm-3 (FIDAS),0.98154,R,ugm-3,22.12840,R,ugm-3,23.63341,R,ugm-3,11.014,R,ugm-3 (Ref.eq)
06-01-2019,06:00,17.150,R,ugm-3 (FIDAS),1.13652,R,ugm-3,22.60334,R,ugm-3,24.34597,R,ugm-3,12.807,R,ugm-3 (Ref.eq)
06-01-2019,07:00,17.575,R,ugm-3 (FIDAS),1.23984,R,ugm-3,23.55335,R,ugm-3,25.45441,R,ugm-3,13.396,R,ugm-3 (Ref.eq)
06-01-2019,08:00,19.575,R,ugm-3 (FIDAS),1.36899,R,ugm-3,25.41384,R,ugm-3,27.51293,R,ugm-3,14.976,R,ugm-3 (Ref.eq)
06-01-2019,09:00,21.575,R,ugm-3 (FIDAS),2.50551,R,ugm-3,34.95349,R,ugm-3,38.79521,R,ugm-3,16.132,R,ugm-3 (Ref.eq)
06-01-2019,10:00,24.550,R,ugm-3 (FIDAS),9.09215,R,ugm-3,38.94706,R,ugm-3,52.88817,R,ugm-3,16.769,R,ugm-3 (Ref.eq)
06-01-2019,11:00,36.250,R,ugm-3 (FIDAS),13.87070,R,ugm-3,40.13126,R,ugm-3,61.39936,R,ugm-3,18.420,R,ugm-3 (Ref.eq)
06-01-2019,12:00,39.925,R,ugm-3 (FIDAS),19.47580,R,ugm-3,43.53173,R,ugm-3,73.39421,R,ugm-3,19.623,R,ugm-3 (Ref.eq)
06-01-2019,13:00,37.175,R,ugm-3 (FIDAS),19.03669,R,ugm-3,44.36337,R,ugm-3,73.55255,R,ugm-3,19.977,R,ugm-3 (Ref.eq)
06-01-2019,14:00,35.550,R,ugm-3 (FIDAS),33.47565,R,ugm-3,48.74720,R,ugm-3,100.07581,R,ugm-3,21.510,R,ugm-3 (Ref.eq)
06-01-2019,15:00,30.550,R,ugm-3 (FIDAS),38.71913,R,ugm-3,46.13071,R,ugm-3,105.49922,R,ugm-3,19.340,R,ugm-3 (Ref.eq)
06-01-2019,16:00,31.250,R,ugm-3 (FIDAS),26.57904,R,ugm-3,46.89154,R,ugm-3,87.64551,R,ugm-3,18.892,R,ugm-3 (Ref.eq)
06-01-2019,17:00,31.525,R,ugm-3 (FIDAS),19.01086,R,ugm-3,44.36339,R,ugm-3,73.51297,R,ugm-3,20.094,R,ugm-3 (Ref.eq)
06-01-2019,18:00,31.025,R,ugm-3 (FIDAS),42.10286,R,ugm-3,44.62399,R,ugm-3,109.18081,R,ugm-3,21.061,R,ugm-3 (Ref.eq)
06-01-2019,19:00,33.975,R,ugm-3 (FIDAS),45.97735,R,ugm-3,45.65048,R,ugm-3,116.14811,R,ugm-3,24.859,R,ugm-3 (Ref.eq)
06-01-2019,20:00,32.375,R,ugm-3 (FIDAS),39.33905,R,ugm-3,45.53647,R,ugm-3,105.85550,R,ugm-3,23.113,R,ugm-3 (Ref.eq)
06-01-2019,21:00,38.150,R,ugm-3 (FIDAS),48.50869,R,ugm-3,50.43870,R,ugm-3,124.81765,R,ugm-3,27.877,R,ugm-3 (Ref.eq)
06-01-2019,22:00,40.725,R,ugm-3 (FIDAS),52.58983,R,ugm-3,52.77141,R,ugm-3,133.40802,R,ugm-3,30.189,R,ugm-3 (Ref.eq)
06-01-2019,23:00,40.125,R,ugm-3 (FIDAS),49.72270,R,ugm-3,46.08326,R,ugm-3,122.32368,R,ugm-3,29.080,R,ugm-3 (Ref.eq)
06-01-2019,24:00,32.125,R,ugm-3 (FIDAS),11.00357,R,ugm-3,41.67719,R,ugm-3,58.54910,R,ugm-3,23.255,R,ugm-3 (Ref.eq)
07-01-2019,01:00,26.375,R,ugm-3 (FIDAS),6.34869,R,ugm-3,36.61964,R,ugm-3,46.35416,R,ugm-3,18.043,R,ugm-3 (Ref.eq)
07-01-2019,02:00,23.925,R,ugm-3 (FIDAS),1.69298,R,ugm-3,20.39234,R,ugm-3,22.98821,R,ugm-3,15.566,R,ugm-3 (Ref.eq)
07-01-2019,03:00,22.325,R,ugm-3 (FIDAS),1.93106,R,ugm-3,17.27518,R,ugm-3,20.23610,R,ugm-3,13.821,R,ugm-3 (Ref.eq)
07-01-2019,04:00,21.550,R,ugm-3 (FIDAS),1.58717,R,ugm-3,14.20044,R,ugm-3,16.63407,R,ugm-3,12.736,R,ugm-3 (Ref.eq)
07-01-2019,05:00,18.650,R,ugm-3 (FIDAS),1.21683,R,ugm-3,13.87790,R,ugm-3,15.74369,R,ugm-3,10.943,R,ugm-3 (Ref.eq)
07-01-2019,06:00,18.050,R,ugm-3 (FIDAS),2.59238,R,ugm-3,19.45847,R,ugm-3,23.43340,R,ugm-3,10.259,R,ugm-3 (Ref.eq)
07-01-2019,07:00,16.675,R,ugm-3 (FIDAS),2.75110,R,ugm-3,23.30280,R,ugm-3,27.52110,R,ugm-3,9.623,R,ugm-3 (Ref.eq)
07-01-2019,08:00,17.650,R,ugm-3 (FIDAS),10.52825,R,ugm-3,37.19927,R,ugm-3,53.34236,R,ugm-3,8.868,R,ugm-3 (Ref.eq)
07-01-2019,09:00,16.450,R,ugm-3 (FIDAS),7.96232,R,ugm-3,39.31240,R,ugm-3,51.52111,R,ugm-3,8.892,R,ugm-3 (Ref.eq)
07-01-2019,10:00,18.375,R,ugm-3 (FIDAS),8.46492,R,ugm-3,39.35119,R,ugm-3,52.33056,R,ugm-3,8.774,R,ugm-3 (Ref.eq)
07-01-2019,11:00,12.250,R,ugm-3 (FIDAS),10.60760,R,ugm-3,40.19395,R,ugm-3,56.45872,R,ugm-3,6.321,R,ugm-3 (Ref.eq)
07-01-2019,12:00,,,,,,,,,,,,,,,
07-01-2019,13:00,11.100,R,ugm-3 (FIDAS),,,,,,,,,,5.802,R,ugm-3 (Ref.eq)
07-01-2019,14:00,15.100,R,ugm-3 (FIDAS),,,,,,,,,,7.453,R,ugm-3 (Ref.eq)
07-01-2019,15:00,15.325,R,ugm-3 (FIDAS),1.93988,R,ugm-3,15.91259,R,ugm-3,18.88703,R,ugm-3,8.042,R,ugm-3 (Ref.eq)
07-01-2019,16:00,19.475,R,ugm-3 (FIDAS),1.87815,R,ugm-3,11.56878,R,ugm-3,14.44858,R,ugm-3,9.693,R,ugm-3 (Ref.eq)
07-01-2019,17:00,17.875,R,ugm-3 (FIDAS),1.90461,R,ugm-3,12.70191,R,ugm-3,15.62227,R,ugm-3,8.726,R,ugm-3 (Ref.eq)
07-01-2019,18:00,20.400,R,ugm-3 (FIDAS),2.64529,R,ugm-3,18.40602,R,ugm-3,22.46207,R,ugm-3,9.693,R,ugm-3 (Ref.eq)
07-01-2019,19:00,20.200,R,ugm-3 (FIDAS),2.75110,R,ugm-3,20.22692,R,ugm-3,24.44521,R,ugm-3,9.741,R,ugm-3 (Ref.eq)
07-01-2019,20:00,17.975,R,ugm-3 (FIDAS),3.28016,R,ugm-3,23.09868,R,ugm-3,28.12818,R,ugm-3,8.326,R,ugm-3 (Ref.eq)
07-01-2019,21:00,18.650,R,ugm-3 (FIDAS),2.67174,R,ugm-3,18.36546,R,ugm-3,22.46207,R,ugm-3,8.585,R,ugm-3 (Ref.eq)
07-01-2019,22:00,17.425,R,ugm-3 (FIDAS),1.66653,R,ugm-3,13.83593,R,ugm-3,16.39124,R,ugm-3,8.302,R,ugm-3 (Ref.eq)
07-01-2019,23:00,18.175,R,ugm-3 (FIDAS),0.87295,R,ugm-3,11.73402,R,ugm-3,13.07252,R,ugm-3,8.443,R,ugm-3 (Ref.eq)
07-01-2019,24:00,18.850,R,ugm-3 (FIDAS),0.95230,R,ugm-3,9.54826,R,ugm-3,11.00844,R,ugm-3,8.632,R,ugm-3 (Ref.eq)
08-01-2019,01:00,14.875,R,ugm-3 (FIDAS),0.60571,R,ugm-3,7.04498,R,ugm-3,7.97373,R,ugm-3,7.170,R,ugm-3 (Ref.eq)
08-01-2019,02:00,14.650,R,ugm-3 (FIDAS),1.49647,R,ugm-3,8.40990,R,ugm-3,10.70445,R,ugm-3,6.863,R,ugm-3 (Ref.eq)
08-01-2019,03:00,16.350,R,ugm-3 (FIDAS),1.06891,R,ugm-3,5.81592,R,ugm-3,7.45489,R,ugm-3,7.618,R,ugm-3 (Ref.eq)
08-01-2019,04:00,17.100,R,ugm-3 (FIDAS),1.01546,R,ugm-3,5.24250,R,ugm-3,6.79951,R,ugm-3,8.160,R,ugm-3 (Ref.eq)
08-01-2019,05:00,22.025,R,ugm-3 (FIDAS),0.85513,R,ugm-3,6.02083,R,ugm-3,7.33201,R,ugm-3,10.189,R,ugm-3 (Ref.eq)
08-01-2019,06:00,26.475,R,ugm-3 (FIDAS),2.00420,R,ugm-3,6.26603,R,ugm-3,9.33909,R,ugm-3,12.948,R,ugm-3 (Ref.eq)
08-01-2019,07:00,29.400,R,ugm-3 (FIDAS),2.24470,R,ugm-3,10.85353,R,ugm-3,14.29536,R,ugm-3,13.939,R,ugm-3 (Ref.eq)
08-01-2019,08:00,29.725,R,ugm-3 (FIDAS),4.43596,R,ugm-3,21.74805,R,ugm-3,28.54976,R,ugm-3,14.198,R,ugm-3 (Ref.eq)
08-01-2019,09:00,31.625,R,ugm-3 (FIDAS),12.63982,R,ugm-3,43.16654,R,ugm-3,62.54732,R,ugm-3,14.387,R,ugm-3 (Ref.eq)
08-01-2019,10:00,31.075,R,ugm-3 (FIDAS),13.22771,R,ugm-3,44.92757,R,ugm-3,65.20978,R,ugm-3,13.962,R,ugm-3 (Ref.eq)
08-01-2019,11:00,32.875,R,ugm-3 (FIDAS),12.18553,R,ugm-3,40.62719,R,ugm-3,59.31141,R,ugm-3,14.387,R,ugm-3 (Ref.eq)
08-01-2019,12:00,30.150,R,ugm-3 (FIDAS),10.26150,R,ugm-3,32.64077,R,ugm-3,48.37485,R,ugm-3,13.231,R,ugm-3 (Ref.eq)
08-01-2019,13:00,28.000,R,ugm-3 (FIDAS),9.16587,R,ugm-3,29.32348,R,ugm-3,43.37761,R,ugm-3,11.887,R,ugm-3 (Ref.eq)
08-01-2019,14:00,26.300,R,ugm-3 (FIDAS),6.89445,R,ugm-3,26.86695,R,ugm-3,37.43828,R,ugm-3,11.344,R,ugm-3 (Ref.eq)
08-01-2019,15:00,25.425,R,ugm-3 (FIDAS),7.29528,R,ugm-3,25.76080,R,ugm-3,36.94675,R,ugm-3,10.826,R,ugm-3 (Ref.eq)
08-01-2019,16:00,26.400,R,ugm-3 (FIDAS),9.62016,R,ugm-3,34.07472,R,ugm-3,48.82542,R,ugm-3,11.368,R,ugm-3 (Ref.eq)
08-01-2019,17:00,27.025,R,ugm-3 (FIDAS),11.46402,R,ugm-3,43.33097,R,ugm-3,60.90889,R,ugm-3,12.476,R,ugm-3 (Ref.eq)
08-01-2019,18:00,25.400,R,ugm-3 (FIDAS),19.96182,R,ugm-3,56.47522,R,ugm-3,87.08291,R,ugm-3,13.160,R,ugm-3 (Ref.eq)
08-01-2019,19:00,24.250,R,ugm-3 (FIDAS),34.60584,R,ugm-3,59.17138,R,ugm-3,112.23292,R,ugm-3,14.057,R,ugm-3 (Ref.eq)
08-01-2019,20:00,23.025,R,ugm-3 (FIDAS),60.12597,R,ugm-3,64.15596,R,ugm-3,156.34783,R,ugm-3,13.939,R,ugm-3 (Ref.eq)
08-01-2019,21:00,23.800,R,ugm-3 (FIDAS),61.43538,R,ugm-3,63.37706,R,ugm-3,157.57666,R,ugm-3,16.250,R,ugm-3 (Ref.eq)
08-01-2019,22:00,21.950,R,ugm-3 (FIDAS),92.54055,R,ugm-3,62.37858,R,ugm-3,204.27210,R,ugm-3,15.212,R,ugm-3 (Ref.eq)
08-01-2019,23:00,21.975,R,ugm-3 (FIDAS),77.89653,R,ugm-3,61.07509,R,ugm-3,180.51477,R,ugm-3,14.505,R,ugm-3 (Ref.eq)
08-01-2019,24:00,18.925,R,ugm-3 (FIDAS),86.66156,R,ugm-3,61.02978,R,ugm-3,193.90899,R,ugm-3,13.160,R,ugm-3 (Ref.eq)
09-01-2019,01:00,17.600,R,ugm-3 (FIDAS),81.33718,R,ugm-3,53.96031,R,ugm-3,178.67557,R,ugm-3,13.255,R,ugm-3 (Ref.eq)
09-01-2019,02:00,14.375,R,ugm-3 (FIDAS),62.08258,R,ugm-3,52.92141,R,ugm-3,148.11337,R,ugm-3,10.543,R,ugm-3 (Ref.eq)
09-01-2019,03:00,12.700,R,ugm-3 (FIDAS),23.64537,R,ugm-3,41.66960,R,ugm-3,77.92532,R,ugm-3,8.609,R,ugm-3 (Ref.eq)
09-01-2019,04:00,10.650,R,ugm-3 (FIDAS),19.89342,R,ugm-3,40.58331,R,ugm-3,71.08613,R,ugm-3,7.146,R,ugm-3 (Ref.eq)
09-01-2019,05:00,9.400,R,ugm-3 (FIDAS),12.11960,R,ugm-3,33.06312,R,ugm-3,51.64625,R,ugm-3,6.085,R,ugm-3 (Ref.eq)
09-01-2019,06:00,7.375,R,ugm-3 (FIDAS),16.19546,R,ugm-3,36.72003,R,ugm-3,61.55271,R,ugm-3,4.458,R,ugm-3 (Ref.eq)
09-01-2019,07:00,7.325,R,ugm-3 (FIDAS),28.63896,R,ugm-3,52.87244,R,ugm-3,96.78490,R,ugm-3,4.363,R,ugm-3 (Ref.eq)
09-01-2019,08:00,8.500,R,ugm-3 (FIDAS),39.81383,R,ugm-3,63.71639,R,ugm-3,124.76341,R,ugm-3,5.259,R,ugm-3 (Ref.eq)
09-01-2019,09:00,9.800,R,ugm-3 (FIDAS),72.25873,R,ugm-3,74.23602,R,ugm-3,185.03118,R,ugm-3,5.330,R,ugm-3 (Ref.eq)
09-01-2019,10:00,11.325,R,ugm-3 (FIDAS),109.07639,R,ugm-3,84.35116,R,ugm-3,251.59930,R,ugm-3,6.179,R,ugm-3 (Ref.eq)
09-01-2019,11:00,16.275,R,ugm-3 (FIDAS),85.05313,R,ugm-3,77.00100,R,ugm-3,207.41399,R,ugm-3,8.208,R,ugm-3 (Ref.eq)
09-01-2019,12:00,14.300,R,ugm-3 (FIDAS),81.76006,R,ugm-3,73.51169,R,ugm-3,198.87536,R,ugm-3,6.226,R,ugm-3 (Ref.eq)
09-01-2019,13:00,16.250,R,ugm-3 (FIDAS),35.33309,R,ugm-3,54.33851,R,ugm-3,108.51515,R,ugm-3,5.024,R,ugm-3 (Ref.eq)
09-01-2019,14:00,21.675,R,ugm-3 (FIDAS),18.51681,R,ugm-3,41.98945,R,ugm-3,70.38148,R,ugm-3,5.590,R,ugm-3 (Ref.eq)
09-01-2019,15:00,24.200,R,ugm-3 (FIDAS),21.21605,R,ugm-3,41.37389,R,ugm-3,73.90470,R,ugm-3,5.967,R,ugm-3 (Ref.eq)
09-01-2019,16:00,18.100,R,ugm-3 (FIDAS),11.95764,R,ugm-3,37.45641,R,ugm-3,55.79121,R,ugm-3,5.660,R,ugm-3 (Ref.eq)